1998-067NS (43498 NORAD) Tracking and Keplerian Element Data

This shows tracking and keplerian element data for the satellite.

Feedback or suggestion? Click here.




ElementValue
Catalog43498
Name1998-067NS
Epoch Orbit7
Epoch Day166.86610729
Epoch Year2018
RAAN25.3067
Inclination51.642
Eccentricity0.0001795
Argument of Perigee177.4853
Mean Anonmoly273.3479
Mean Motion15.53865992
Decay Rate8.354E-05
L11 43498U 98067NS 18166.86610729 .00008354 00000-0 13455-3 0 9990
L22 43498 51.6420 25.3067 0001795 177.4853 273.3479 15.53865992 73

Live tracking and technical data element details for 1998-067NS (NORAD 43498). 1998-067NS can be tracked NOW for your location showing map with azimuth and elevation plus other details from your city location.

Track the satellite on the map from your city or location and see movement details for azimuth, elevation, latitude, longitude, range, height, and movement on the map or in text.







IsCatalogInMostPopularTable: catalog: 43498, numindb: 54
Update: records affected: 1



GetName: 43498 1998-067NS

Hit Count: updated at: Tue, 20 Nov 2018 08:23:16 GMT